Flint, MI

8:56 AM EST on December 17, 2017 (GMT -0500)
Bishop International

Weather History for KFNT - December, 2017

Change the Weather History Date:

Thursday, December 7, 2017

  Actual Average Record
Temperature  
Mean Temperature 26 °F 30 °F  
Max Temperature 29 °F 37 °F 59 °F (1951)
Min Temperature 23 °F 24 °F 0 °F (1983)
Degree Days  
Heating Degree Days 39 35  
Month to date heating degree days 197 235  
Since 1 July heating degree days 1495 1716  
Cooling Degree Days 0 0  
Month to date cooling degree days 0 0  
Year to date cooling degree days 567 531  
Moisture  
Dew Point 17 °F    
Average Humidity 67    
Maximum Humidity 81    
Minimum Humidity 53    
Precipitation  
Precipitation T in 0.07 in 0.86 in (1927)
Month to date precipitation T 0.49  
Year to date precipitation 34.33 29.94  
Snow  
Snow T in 0.40 in 7.70 in (1994)
Month to date snowfall T 2.2  
Since 1 July snowfall 0.4 5.1  
Snow Depth T in    
Sea Level Pressure  
Sea Level Pressure 30.01 in    
Wind  
Wind Speed 12 mph (West)    
Max Wind Speed 22 mph    
Max Gust Speed 27 mph    
Visibility 9 miles    
Events Snow    
T = Trace of Precipitation, MM = Missing Value Source: NWS Daily Summary

Daily Weather History Graph

Daily Weather History Graph

Search for Another Location

Airport or City:

Trip Planner

Search our weather history database for the weather conditions in past years. The results will help you decide how hot, cold, wet, or windy it might be!

Date:

Astronomy

Dec. 07, 2017 Rise Set
Actual Time 7:52 AM EST 5:00 PM EST
Civil Twilight 7:20 AM EST 5:32 PM EST
Nautical Twilight 6:45 AM EST 6:07 PM EST
Astronomical Twilight 6:10 AM EST 6:42 PM EST
Moon 9:48 PM EST (12/7) 11:29 AM EST (12/7)
Length of Visible Light 10h 11m
Length of Day
9h 07m
Waning Gibbous, 78% of the Moon is Illuminated
Dec 7
Waning Gibbous
Dec 10
Last Quarter
Dec 18
New
Dec 26
First Quarter
Jan 1
Full

Hourly Weather History & Observations

Time (EST) Temp. Windchill Dew Point Humidity Pressure Visibility Wind Dir Wind Speed Gust Speed Precip Events Conditions
12:12 AM 27.0 °F 17.3 °F 19.0 °F 72% 29.95 in 10.0 mi NW 10.4 mph - N/A   Overcast
12:53 AM 26.1 °F 17.6 °F 19.0 °F 75% 29.98 in 10.0 mi NW 8.1 mph - N/A   Overcast
1:05 AM 26.1 °F 17.6 °F 19.9 °F 78% 29.95 in 10.0 mi WNW 8.1 mph - N/A   Overcast
1:53 AM 26.1 °F 17.6 °F 19.9 °F 78% 29.98 in 10.0 mi WNW 8.1 mph - N/A   Overcast
2:53 AM 26.1 °F 16.2 °F 18.0 °F 71% 29.99 in 10.0 mi West 10.4 mph - N/A   Overcast
3:53 AM 25.0 °F 13.6 °F 18.0 °F 75% 29.99 in 9.0 mi WNW 12.7 mph - 0.00 in   Overcast
4:53 AM 24.1 °F 13.7 °F 18.0 °F 77% 29.99 in 9.0 mi West 10.4 mph - 0.00 in Snow Light Snow
5:46 AM 24.1 °F 13.7 °F 18.0 °F 77% 29.97 in 8.0 mi West 10.4 mph - 0.00 in Snow Light Snow
5:53 AM 24.1 °F 13.1 °F 18.0 °F 77% 30.00 in 7.0 mi West 11.5 mph - 0.00 in Snow Light Snow
6:06 AM 24.1 °F 13.1 °F 18.0 °F 77% 29.97 in 9.0 mi West 11.5 mph - 0.00 in Snow Light Snow
6:53 AM 24.1 °F 15.2 °F 19.0 °F 81% 30.01 in 8.0 mi West 8.1 mph - 0.00 in Snow Light Snow
7:53 AM 23.0 °F 14.7 °F 18.0 °F 81% 30.01 in 10.0 mi West 6.9 mph - 0.00 in   Overcast
8:53 AM 23.0 °F 12.4 °F 17.1 °F 78% 30.02 in 10.0 mi West 10.4 mph - N/A   Overcast
9:53 AM 25.0 °F 13.1 °F 17.1 °F 72% 30.03 in 9.0 mi West 13.8 mph - N/A   Overcast
10:23 AM 25.0 °F 12.2 °F 17.1 °F 72% 30.01 in 10.0 mi West 16.1 mph - N/A   Overcast
10:51 AM 24.8 °F 14.0 °F 17.6 °F 74% 30.01 in 5.0 mi West 11.5 mph - N/A Snow Light Snow
10:53 AM 25.0 °F 14.2 °F 17.1 °F 72% 30.04 in 6.0 mi West 11.5 mph - 0.00 in Snow Light Snow
11:20 AM 26.1 °F 13.1 °F 16.0 °F 66% 30.00 in 10.0 mi West 17.3 mph - 0.00 in   Overcast
11:53 AM 27.0 °F 13.9 °F 16.0 °F 63% 30.03 in 10.0 mi West 18.4 mph 24.2 mph 0.00 in   Mostly Cloudy
12:53 PM 28.0 °F 16.1 °F 16.0 °F 61% 30.01 in 10.0 mi West 16.1 mph - N/A   Scattered Clouds
1:53 PM 28.0 °F 17.5 °F 16.0 °F 61% 30.01 in 10.0 mi West 12.7 mph - N/A   Overcast
2:53 PM 28.0 °F 15.7 °F 16.0 °F 61% 30.01 in 10.0 mi West 17.3 mph - N/A   Overcast
3:53 PM 28.0 °F 16.1 °F 14.0 °F 56% 30.01 in 10.0 mi West 16.1 mph 23.0 mph N/A   Overcast
4:53 PM 27.0 °F 14.3 °F 16.0 °F 63% 30.02 in 10.0 mi West 17.3 mph 24.2 mph 0.00 in Snow Light Snow
5:53 PM 26.1 °F 13.6 °F 16.0 °F 66% 30.04 in 10.0 mi West 16.1 mph 24.2 mph 0.00 in   Overcast
6:29 PM 25.0 °F 13.1 °F 19.0 °F 78% 30.01 in 5.0 mi West 13.8 mph - 0.00 in Snow Light Snow
6:53 PM 25.0 °F 11.3 °F 17.1 °F 72% 30.06 in 4.0 mi West 18.4 mph 27.6 mph 0.00 in Snow Light Snow
7:18 PM 24.1 °F 10.1 °F 15.1 °F 69% 30.03 in 9.0 mi West 18.4 mph 26.5 mph 0.00 in Snow Light Snow
7:53 PM 24.1 °F 12.0 °F 15.1 °F 69% 30.08 in 10.0 mi West 13.8 mph - 0.00 in   Overcast
8:53 PM 23.0 °F 13.1 °F 12.9 °F 65% 30.07 in 10.0 mi WSW 9.2 mph - N/A   Mostly Cloudy
9:53 PM 23.0 °F 12.4 °F 14.0 °F 68% 30.06 in 10.0 mi WSW 10.4 mph - N/A   Overcast
10:53 PM 24.1 °F 14.4 °F 17.1 °F 75% 30.04 in 10.0 mi WSW 9.2 mph - N/A   Overcast
11:23 PM 24.1 °F 12.5 °F 17.1 °F 75% 30.00 in 10.0 mi SW 12.7 mph - N/A   Overcast
11:53 PM 23.0 °F 11.7 °F 17.1 °F 78% 30.03 in 10.0 mi SW 11.5 mph - N/A   Overcast